Retour au catalogue

STARLINK-38068

ActifCommunicationsSSO
NORAD 69984·PAYLOAD·🇺🇸 United States

Lancé Jul 11, 2026 depuis Vandenberg Space Force Base

Loading…

Prochains Passages (prochaines 24 heures)

TLE

FraisSource: CelesTrak SupGP

Époque: Sep 14, 2026, 22:56 UTC

1 69984C 26159K   26257.95604167  .00015183  00000+0  27981-3 0  2573
2 69984  97.2847  99.6606 0002004  96.1730 310.5418 15.49172057    17

Suivez STARLINK-38068 en temps réel avec AllMySat

Download on the App Store